Location: *
(41.7492°S, 135.4150°W)
Time: 22:52:56
(UTC+00:00)

METEOR M2 - Pass Details

Date: 04 July 2022
Orbit: 818 x 827 km, 98.4° (Epoch: 17 August)

Event Time Altitude Azimuth Distance (km) Brightness Sun altitude
Exits shadow 05:12:37 28° 253° (WSW) 1,532 ? -38.3°
Drops below altitude 10° 05:16:41 10° 302° (WNW) 2,429 ? -39.0°
Sets 05:19:19 0° 313° (NW) 3,355 ? -39.5°
